Regional Weather Roundup
Issued by NWS Lake Charles, LA

Home | Current Version | Previous Version | Text Only | Print | Product List | Glossary On
Versions: 1 2 3 4 5 6 7 8 9 10 11 12 13 14 15 16 17 18 19 20 21 22 23 24 25 26 27 28 29 30 31 32 33 34 35 36 37 38 39 40 41 42 43 44 45 46 47 48 49 50
975
ASUS44 KLCH 250510
RWRLCH
REGIONAL WEATHER ROUNDUP
NATIONAL WEATHER SERVICE LAKE CHARLES LA
1200 AM CDT MON SEP 25 2017

Note: "fair" indicates few or no clouds below 12,000 feet with no
significant weather and/or obstructions to visibility.


ACROSS SOUTHEAST TEXAS

CITY           SKY/WX    TMP DP  RH WIND       PRES   REMARKS
BEAUMONT       CLEAR     77  71  82 MISG      29.89F
BEAUMONT CITY  FAIR      74  72  92 CALM      29.90F
ORANGE         PTCLDY    72  72  99 CALM      29.91F
JASPER         PTCLDY    73  72  96 CALM      29.93S
$$

ACROSS CENTRAL LOUISIANA

CITY           SKY/WX    TMP DP  RH WIND       PRES   REMARKS
LEESVILLE      CLEAR     73  69  86 CALM      29.91S
FULLERTON      FAIR      71  69  93 CALM      29.90S
ALEXANDRIA INT CLEAR     73  69  87 CALM      29.91S
ESLER FIELD    MOCLDY    70  70 100 CALM      29.93S
DERIDDER       FAIR      73  72  95 CALM      29.94S
OAKDALE        CLEAR     70  69  95 CALM      29.92S FOG
OPELOUSAS      FAIR      72  70  94 CALM      29.92S
$$

ACROSS SOUTHWEST AND SOUTH CENTRAL LOUISIANA

CITY           SKY/WX    TMP DP  RH WIND       PRES   REMARKS
SULPHUR        CLEAR     73  73  98 CALM      29.91S
LAKE CHARLES   CLEAR     74  72  93 CALM      29.90S
CHENNAULT INT    N/A     71  69  92 CALM      29.91S
CAMERON PHI      N/A     75  72  88 NE6       29.89S
DEQUINCY       FAIR      71  69  92 CALM      29.91S
JENNINGS       FAIR      75  69  83 SE3       29.91S
LAFAYETTE      CLEAR     74  71  91 E3        29.91F
NEW IBERIA     CLEAR     75  69  81 E7        29.91F
ABBEVILLE      NOT AVBL
PATTERSON      CLEAR     72  70  93 E5        29.91F
SALT POINT       N/A     74  72  93 CALM      29.89F
$$

SELECTED SITES ACROSS THE REGION

CITY           SKY/WX    TMP DP  RH WIND       PRES   REMARKS
HOUSTON BUSH   PTCLDY    74  72  93 E6        29.88F
HOUSTON HOBBY  PTCLDY    80  73  79 CALM      29.88S
GALVESTON      PTCLDY    83  74  74 E9        29.88F
COLLEGE STAT   CLEAR     76  70  82 SE7       29.88F
CONROE         CLEAR     71  70  96 E3        29.89F
HUNTSVILLE     CLEAR     77  69  76 CALM      29.90F
LUFKIN         CLEAR     71  70  96 E5        29.90F
SHREVEPORT     CLEAR     73  69  87 CALM      29.91S
MONROE         CLEAR     75  69  81 SE3       29.94S
NATCHEZ MS     CLEAR     72  67  84 SE6       29.95S
BATON ROUGE    CLEAR     71  67  87 NE3       29.93S
N.O. INTL ARPT PTCLDY    77  69  76 E5        29.91S
SLIDELL        CLEAR     68  66  93 CALM      29.92S
$$

MARINE REPORTS

STATION/POSITION TIME  SKY/WX   TEMP    WIND        PRES    VSBY
                                AIR SEA DIR/SP/G
                 (UTC)          (F)     (DEG/KT/KT) (MB)    (MI)
BUOY 30 S HIGH I NOT AVBL
SEA RIM ST PARK  0400            81     130/  7/  9 1012.8R
PORT ARTHUR      0448            79 83   90/  2/  4 1012.5F
SABINE PASS N    0442            82 85  110/  8/  9 1013.7S
TEXAS POINT      NOT AVBL
CALCASIEU PASS   0448            77 86   80/  6/  7 1011.2F
LK CHARLES BEACH 0448            76 81              1012.2S
MARSH ISLAND     0400            81                   N/A
FRESH WATER LOCK 0448            79 87  100/  6/  9 1012.4F
AMERADA PASS     0448            76 82   50/  2/  4 1012.3F
$$




USA.gov is the U.S. government's official web portal to all federal, state and local government web resources and services.